This is the latest recevied weather packets stored in our database for station/object HB9TJM-8. If no packets are shown the sender has not sent any weather packets the latest 10 day(s).
| Time | Temp. | Humidity | Pressure | Rain* | Wind** | Luminosity | Snow |
|---|---|---|---|---|---|---|---|
| 1777830925 | 12.78° C | 65% | 1015.6 hPa | 0 mm | - | 27 W/m² | - |
| 1777830618 | 13.33° C | 63% | 1015.8 hPa | 0 mm | - | 27 W/m² | - |
| 1777830311 | 13.89° C | 61% | 1015.7 hPa | 0 mm | - | 34 W/m² | - |
| 1777830003 | 13.89° C | 59% | 1015.1 hPa | 0 mm | - | 41 W/m² | - |
| 1777829695 | 13.89° C | 59% | 1015.7 hPa | 0 mm | - | 53 W/m² | - |
| 1777829388 | 13.89° C | 62% | 1015.7 hPa | 0 mm | - | 60 W/m² | - |
| 1777829081 | 13.33° C | 62% | 1015.6 hPa | 0 mm | - | 90 W/m² | - |
| 1777828773 | 13.33° C | 62% | 1015.5 hPa | 0 mm | - | 99 W/m² | - |
| 1777828465 | 13.89° C | 59% | 1015.8 hPa | 0 mm | - | 89 W/m² | - |
| 1777828158 | 13.33° C | 61% | 1015.7 hPa | 0 mm | - | 82 W/m² | - |
| 1777827850 | 13.89° C | 59% | 1015.9 hPa | 0 mm | - | 90 W/m² | - |
| 1777827543 | 13.33° C | 59% | 1016.2 hPa | 0 mm | - | 101 W/m² | - |
| 1777827236 | 13.89° C | 57% | 1016 hPa | 0 mm | - | 73 W/m² | - |
| 1777826620 | 13.89° C | 55% | 1016.5 hPa | 0 mm | - | 46 W/m² | - |
| 1777826313 | 13.89° C | 55% | 1016.2 hPa | 0 mm | - | 56 W/m² | - |
| 1777825697 | 13.89° C | 55% | 1016.4 hPa | 0 mm | - | 81 W/m² | - |
| 1777825390 | 13.89° C | 56% | 1016.5 hPa | 0 mm | - | 77 W/m² | - |
| 1777825082 | 13.89° C | 57% | 1016.1 hPa | 0 mm | - | 79 W/m² | - |
| 1777824774 | 13.89° C | 55% | 1016.7 hPa | 0 mm | - | 63 W/m² | - |
| 1777824467 | 13.89° C | 58% | 1016.7 hPa | 0 mm | - | 61 W/m² | - |
| 1777824160 | 13.89° C | 58% | 1016.6 hPa | 0 mm | - | 74 W/m² | - |
| 1777823853 | 13.89° C | 57% | 1016.4 hPa | 0 mm | - | 81 W/m² | - |
| 1777823545 | 13.89° C | 56% | 1016.6 hPa | 0 mm | - | 83 W/m² | - |
| 1777823238 | 13.89° C | 57% | 1016.2 hPa | 0 mm | - | 110 W/m² | - |
| 1777822930 | 13.89° C | 56% | 1016.7 hPa | 0 mm | - | 138 W/m² | - |
* Rain latest hour (hover to see other rain measurements)
** Current wind speed in m/s (hover to see current wind gust speed)